| time (UTC) | temp F | wind direction | speed MPH | gust MPH | rain 1hr in | rain 24hr in | rain mn in | humidity % | barometer mb |
| 20260505194509 | 88 | 329 | 2.0 | 7.0 | 0.00 | 0.00 | 0.00 | 61 | 1003.1 |
| 20260505193008 | 87 | 262 | 2.0 | 9.0 | 0.00 | 0.00 | 0.00 | 62 | 1003.3 |
| 20260505191510 | 86 | 140 | 2.0 | 11.0 | 0.00 | 0.00 | 0.00 | 63 | 1003.2 |
| 20260505190010 | 86 | 329 | 1.0 | 11.0 | 0.00 | 0.00 | 0.00 | 63 | 1003.2 |
| 20260505184507 | 86 | 157 | 3.0 | 9.0 | 0.00 | 0.00 | 0.00 | 62 | 1003.4 |
| 20260505183102 | 85 | 67 | 3.0 | 10.0 | 0.00 | 0.00 | 0.00 | 63 | 1003.5 |
| 20260505181558 | 84 | 109 | 1.0 | 7.0 | 0.00 | 0.00 | 0.00 | 66 | 1003.6 |
| 20260505180002 | 83 | 283 | 2.0 | 10.0 | 0.00 | 0.00 | 0.00 | 67 | 1003.7 |
| 20260505174604 | 83 | 55 | 1.0 | 7.0 | 0.00 | 0.00 | 0.00 | 67 | 1003.7 |
| 20260505173057 | 82 | 248 | 1.0 | 10.0 | 0.00 | 0.00 | 0.00 | 69 | 1003.8 |
| 20260505171553 | 81 | 254 | 2.0 | 10.0 | 0.00 | 0.00 | 0.00 | 71 | 1003.7 |
| 20260505170107 | 82 | 134 | 1.0 | 8.0 | 0.00 | 0.00 | 0.00 | 70 | 1003.8 |
| 20260505164550 | 81 | 106 | 3.0 | 7.0 | 0.00 | 0.00 | 0.00 | 71 | 1003.9 |
| 20260505163047 | 81 | 227 | 1.0 | 9.0 | 0.00 | 0.00 | 0.00 | 72 | 1003.7 |
| 20260505161546 | 80 | 205 | 2.0 | 10.0 | 0.00 | 0.00 | 0.00 | 74 | 1003.5 |
| 20260505153040 | 77 | 175 | 4.0 | 8.0 | 0.00 | 0.00 | 0.00 | 77 | 1003.6 |
| 20260505151553 | 77 | 316 | 1.0 | 11.0 | 0.00 | 0.00 | 0.00 | 77 | 1003.8 |
| 20260505124512 | 70 | 136 | 2.0 | 11.0 | 0.00 | 0.00 | 0.00 | 86 | 1003.2 |
| 20260505123008 | 70 | 237 | 2.0 | 8.0 | 0.00 | 0.00 | 0.00 | 86 | 1002.9 |
| 20260505121512 | 70 | 215 | 1.0 | 11.0 | 0.00 | 0.00 | 0.00 | 86 | 1002.7 |
| 20260505120002 | 70 | 181 | 4.0 | 13.0 | 0.00 | 0.00 | 0.00 | 86 | 1002.6 |
| 20260505114600 | 70 | 96 | 2.0 | 10.0 | 0.00 | 0.00 | 0.00 | 86 | 1002.8 |
| 20260505113101 | 70 | 184 | 2.0 | 10.0 | 0.00 | 0.00 | 0.00 | 86 | 1002.6 |
| 20260505111559 | 70 | 230 | 2.0 | 9.0 | 0.00 | 0.00 | 0.00 | 86 | 1002.7 |
| 20260505101556 | 71 | 181 | 5.0 | 13.0 | 0.00 | 0.00 | 0.00 | 85 | 1002.4 |
| 20260505100055 | 71 | 107 | 2.0 | 11.0 | 0.00 | 0.00 | 0.00 | 85 | 1002.6 |
| 20260505094549 | 71 | 175 | 2.0 | 11.0 | 0.00 | 0.00 | 0.00 | 84 | 1002.7 |
| 20260505093048 | 71 | 123 | 2.0 | 12.0 | 0.00 | 0.00 | 0.00 | 84 | 1002.7 |
| 20260505091545 | 71 | 200 | 1.0 | 8.0 | 0.00 | 0.00 | 0.00 | 84 | 1003.1 |
| 20260505090056 | 71 | 177 | 4.0 | 12.0 | 0.00 | 0.00 | 0.00 | 84 | 1003.2 |
| 20260505084549 | 71 | 147 | 1.0 | 10.0 | 0.00 | 0.00 | 0.00 | 84 | 1003.1 |
| 20260505083045 | 71 | 150 | 4.0 | 15.0 | 0.00 | 0.00 | 0.00 | 84 | 1003.2 |
| 20260505081544 | 71 | 215 | 2.0 | 14.0 | 0.00 | 0.00 | 0.00 | 83 | 1003.2 |
| 20260505080038 | 71 | 107 | 2.0 | 11.0 | 0.00 | 0.00 | 0.00 | 83 | 1003.3 |
| 20260505074536 | 71 | 173 | 2.0 | 10.0 | 0.00 | 0.00 | 0.00 | 82 | 1003.5 |
| 20260505073038 | 72 | 202 | 3.0 | 12.0 | 0.00 | 0.00 | 0.00 | 82 | 1003.7 |
| 20260505071530 | 72 | 150 | 1.0 | 11.0 | 0.00 | 0.00 | 0.00 | 81 | 1004.0 |
| 20260505070028 | 72 | 229 | 2.0 | 10.0 | 0.00 | 0.00 | 0.00 | 81 | 1004.2 |
| 20260505064527 | 72 | 183 | 2.0 | 8.0 | 0.00 | 0.00 | 0.00 | 80 | 1004.3 |
| 20260505063026 | 72 | 136 | 4.0 | 11.0 | 0.00 | 0.00 | 0.00 | 79 | 1004.4 |
| 20260505061524 | 73 | 237 | 2.0 | 14.0 | 0.00 | 0.00 | 0.00 | 77 | 1004.4 |
| 20260505060030 | 73 | 188 | 5.0 | 14.0 | 0.00 | 0.00 | 0.00 | 76 | 1004.5 |
| 20260505054532 | 74 | 134 | 4.0 | 14.0 | 0.00 | 0.00 | 0.00 | 75 | 1004.3 |
| 20260505053016 | 74 | 213 | 3.0 | 16.0 | 0.00 | 0.00 | 0.00 | 74 | 1004.3 |
| 20260505051511 | 74 | 150 | 4.0 | 13.0 | 0.00 | 0.00 | 0.00 | 73 | 1004.6 |
| 20260505041505 | 74 | 237 | 2.0 | 11.0 | 0.00 | 0.00 | 0.00 | 73 | 1004.8 |
| 20260505040004 | 75 | 218 | 4.0 | 12.0 | 0.00 | 0.00 | 0.00 | 72 | 1004.7 |
| 20260505034504 | 75 | 232 | 4.0 | 12.0 | 0.00 | 0.00 | 0.00 | 72 | 1004.9 |
| 20260505033010 | 75 | 198 | 4.0 | 11.0 | 0.00 | 0.00 | 0.00 | 72 | 1004.7 |
| 20260505031502 | 75 | 159 | 3.0 | 11.0 | 0.00 | 0.00 | 0.00 | 72 | 1004.6 |
| 20260505030001 | 75 | 44 | 3.0 | 10.0 | 0.00 | 0.00 | 0.00 | 72 | 1005.0 |
| 20260505024503 | 75 | 161 | 3.0 | 9.0 | 0.00 | 0.00 | 0.00 | 72 | 1004.9 |
| 20260505023001 | 75 | 132 | 4.0 | 13.0 | 0.00 | 0.00 | 0.00 | 71 | 1004.8 |
| 20260505021501 | 75 | 166 | 3.0 | 12.0 | 0.00 | 0.00 | 0.00 | 70 | 1004.6 |
| 20260505020100 | 76 | 82 | 3.0 | 12.0 | 0.00 | 0.00 | 0.00 | 69 | 1004.6 |
| 20260505014600 | 76 | 172 | 3.0 | 12.0 | 0.00 | 0.00 | 0.00 | 69 | 1004.5 |
| 20260505013059 | 76 | 121 | 5.0 | 11.0 | 0.00 | 0.00 | 0.00 | 68 | 1004.6 |
| 20260505011602 | 77 | 128 | 4.0 | 12.0 | 0.00 | 0.00 | 0.00 | 67 | 1004.7 |
| 20260505004600 | 77 | 190 | 3.0 | 15.0 | 0.00 | 0.00 | 0.00 | 66 | 1004.7 |
| 20260505003059 | 77 | 201 | 4.0 | 15.0 | 0.00 | 0.00 | 0.00 | 66 | 1004.8 |
| 20260505001554 | 77 | 141 | 5.0 | 12.0 | 0.00 | 0.00 | 0.00 | 65 | 1004.9 |
| 20260505000058 | 78 | 111 | 6.0 | 13.0 | 0.00 | 0.00 | 0.00 | 64 | 1005.0 |
| 20260504234615 | 78 | 142 | 4.0 | 15.0 | 0.00 | 0.00 | 0.00 | 64 | 1005.0 |
| 20260504233052 | 78 | 151 | 6.0 | 20.0 | 0.00 | 0.00 | 0.00 | 63 | 1005.1 |
| 20260504231555 | 78 | 131 | 5.0 | 16.0 | 0.00 | 0.00 | 0.00 | 63 | 1005.2 |
| 20260504230054 | 79 | 262 | 4.0 | 18.0 | 0.00 | 0.00 | 0.00 | 63 | 1005.3 |
| 20260504224553 | 79 | 281 | 4.0 | 11.0 | 0.00 | 0.00 | 0.00 | 62 | 1005.8 |
| 20260504223047 | 79 | 123 | 5.0 | 14.0 | 0.00 | 0.00 | 0.00 | 62 | 1005.6 |
| 20260504221557 | 79 | 206 | 5.0 | 15.0 | 0.00 | 0.00 | 0.00 | 61 | 1005.8 |
| 20260504220045 | 80 | 128 | 4.0 | 14.0 | 0.00 | 0.00 | 0.00 | 60 | 1005.8 |
| 20260504214549 | 81 | 90 | 4.0 | 12.0 | 0.00 | 0.00 | 0.00 | 60 | 1006.0 |
| 20260504213048 | 80 | 108 | 6.0 | 18.0 | 0.00 | 0.00 | 0.00 | 60 | 1006.2 |
| 20260504211541 | 81 | 153 | 3.0 | 13.0 | 0.00 | 0.00 | 0.00 | 59 | 1006.4 |
| 20260504210045 | 81 | 107 | 6.0 | 16.0 | 0.00 | 0.00 | 0.00 | 59 | 1006.7 |
| 20260504204613 | 81 | 252 | 2.0 | 15.0 | 0.00 | 0.00 | 0.00 | 59 | 1007.0 |
| 20260504203035 | 81 | 225 | 4.0 | 19.0 | 0.00 | 0.00 | 0.00 | 59 | 1007.1 |
| 20260504201531 | 80 | 101 | 4.0 | 10.0 | 0.00 | 0.00 | 0.00 | 59 | 1007.6 |
| 20260504200035 | 79 | 160 | 6.0 | 15.0 | 0.00 | 0.00 | 0.00 | 60 | 1008.0 |